| time (UTC) | temp F | wind direction | speed MPH | gust MPH | rain 1hr in | rain 24hr in | rain mn in | humidity % | barometer mb |
| 20260505124812 | 52 | 230 | 5.0 | 7.0 | 0.00 | 0.00 | 0.00 | 66 | 1009.3 |
| 20260505124345 | 52 | 221 | 3.0 | 4.0 | 0.00 | 0.00 | 0.00 | 65 | 1009.4 |
| 20260505123836 | 52 | 221 | 0.0 | 2.0 | 0.00 | 0.00 | 0.00 | 65 | 1009.4 |
| 20260505123328 | 52 | 221 | 1.0 | 2.0 | 0.00 | 0.00 | 0.00 | 65 | 1009.2 |
| 20260505122820 | 52 | 221 | 0.0 | 1.0 | 0.00 | 0.00 | 0.00 | 64 | 1009.2 |
| 20260505122315 | 52 | 221 | 0.0 | 2.0 | 0.00 | 0.00 | 0.00 | 64 | 1009.2 |
| 20260505121327 | 53 | 221 | 0.0 | 2.0 | 0.00 | 0.00 | 0.00 | 64 | 1009.2 |
| 20260505120819 | 53 | 221 | 0.0 | 2.0 | 0.00 | 0.00 | 0.00 | 64 | 1009.1 |
| 20260505120330 | 53 | 221 | 0.0 | 5.0 | 0.00 | 0.00 | 0.00 | 64 | 1009.1 |
| 20260505115822 | 53 | 221 | 2.0 | 5.0 | 0.00 | 0.00 | 0.00 | 64 | 1008.9 |
| 20260505115315 | 53 | 221 | 0.0 | 4.0 | 0.00 | 0.00 | 0.00 | 64 | 1009.0 |
| 20260505114827 | 53 | 221 | 3.0 | 5.0 | 0.00 | 0.00 | 0.00 | 63 | 1008.9 |
| 20260505114320 | 53 | 219 | 2.0 | 5.0 | 0.00 | 0.00 | 0.00 | 63 | 1009.0 |
| 20260505113831 | 53 | 228 | 1.0 | 3.0 | 0.00 | 0.00 | 0.00 | 62 | 1008.9 |
| 20260505113324 | 53 | 228 | 1.0 | 3.0 | 0.00 | 0.00 | 0.00 | 62 | 1008.9 |
| 20260505112818 | 53 | 228 | 2.0 | 3.0 | 0.00 | 0.00 | 0.00 | 62 | 1008.8 |
| 20260505112316 | 53 | 228 | 1.0 | 2.0 | 0.00 | 0.00 | 0.00 | 62 | 1008.8 |
| 20260505111945 | 53 | 228 | 1.0 | 3.0 | 0.00 | 0.00 | 0.00 | 64 | 1008.8 |
| 20260505111319 | 54 | 228 | 1.0 | 3.0 | 0.00 | 0.00 | 0.00 | 64 | 1008.8 |
| 20260505110835 | 54 | 228 | 2.0 | 3.0 | 0.00 | 0.00 | 0.00 | 64 | 1008.7 |
| 20260505110327 | 54 | 228 | 0.0 | 4.0 | 0.00 | 0.00 | 0.00 | 63 | 1008.7 |
| 20260505101821 | 54 | 98 | 0.0 | 0.0 | 0.00 | 0.00 | 0.00 | 62 | 1008.5 |
| 20260505101332 | 54 | 98 | 0.0 | 0.0 | 0.00 | 0.00 | 0.00 | 61 | 1008.4 |
| 20260505100824 | 54 | 98 | 0.0 | 0.0 | 0.00 | 0.00 | 0.00 | 61 | 1008.4 |
| 20260505100354 | 54 | 98 | 0.0 | 0.0 | 0.00 | 0.00 | 0.00 | 61 | 1008.4 |
| 20260505095825 | 54 | 98 | 0.0 | 0.0 | 0.00 | 0.00 | 0.00 | 61 | 1008.5 |
| 20260505095318 | 54 | 98 | 0.0 | 0.0 | 0.00 | 0.00 | 0.00 | 62 | 1008.4 |
| 20260505094831 | 54 | 98 | 0.0 | 0.0 | 0.00 | 0.00 | 0.00 | 62 | 1008.4 |
| 20260505094323 | 54 | 98 | 0.0 | 0.0 | 0.00 | 0.00 | 0.00 | 62 | 1008.3 |
| 20260505093814 | 54 | 98 | 0.0 | 0.0 | 0.00 | 0.00 | 0.00 | 62 | 1008.3 |
| 20260505093327 | 55 | 98 | 0.0 | 0.0 | 0.00 | 0.00 | 0.00 | 62 | 1008.2 |
| 20260505092823 | 55 | 98 | 0.0 | 4.0 | 0.00 | 0.00 | 0.00 | 61 | 1008.2 |
| 20260505092315 | 55 | 98 | 2.0 | 4.0 | 0.00 | 0.00 | 0.00 | 61 | 1008.1 |
| 20260505091827 | 55 | 77 | 2.0 | 4.0 | 0.00 | 0.00 | 0.00 | 60 | 1008.1 |
| 20260505091321 | 55 | 71 | 0.0 | 3.0 | 0.00 | 0.00 | 0.00 | 60 | 1008.1 |
| 20260505090833 | 56 | 71 | 1.0 | 4.0 | 0.00 | 0.00 | 0.00 | 60 | 1008.1 |
| 20260505090344 | 56 | 96 | 1.0 | 8.0 | 0.00 | 0.00 | 0.00 | 59 | 1008.1 |
| 20260505085816 | 56 | 94 | 2.0 | 8.0 | 0.00 | 0.00 | 0.00 | 58 | 1008.1 |
| 20260505085328 | 57 | 84 | 2.0 | 6.0 | 0.00 | 0.00 | 0.00 | 56 | 1008.1 |
| 20260505084821 | 57 | 92 | 1.0 | 6.0 | 0.00 | 0.00 | 0.00 | 55 | 1008.0 |
| 20260505084314 | 57 | 17 | 2.0 | 6.0 | 0.00 | 0.00 | 0.00 | 53 | 1008.0 |
| 20260505083347 | 57 | 59 | 1.0 | 4.0 | 0.00 | 0.00 | 0.00 | 53 | 1008.0 |
| 20260505082818 | 58 | 61 | 2.0 | 4.0 | 0.00 | 0.00 | 0.00 | 53 | 1008.0 |
| 20260505082330 | 58 | 63 | 2.0 | 3.0 | 0.00 | 0.00 | 0.00 | 53 | 1007.9 |
| 20260505081842 | 58 | 59 | 2.0 | 3.0 | 0.00 | 0.00 | 0.00 | 52 | 1007.9 |
| 20260505081333 | 58 | 59 | 1.0 | 3.0 | 0.00 | 0.00 | 0.00 | 52 | 1007.8 |
| 20260505080825 | 59 | 59 | 0.0 | 3.0 | 0.00 | 0.00 | 0.00 | 52 | 1007.8 |
| 20260505080354 | 59 | 59 | 0.0 | 1.0 | 0.00 | 0.00 | 0.00 | 51 | 1007.8 |
| 20260505075825 | 59 | 59 | 0.0 | 1.0 | 0.00 | 0.00 | 0.00 | 50 | 1007.7 |
| 20260505075318 | 59 | 59 | 0.0 | 3.0 | 0.00 | 0.00 | 0.00 | 49 | 1007.8 |
| 20260505074814 | 60 | 59 | 1.0 | 4.0 | 0.00 | 0.00 | 0.00 | 49 | 1007.6 |
| 20260505074327 | 60 | 72 | 2.0 | 6.0 | 0.00 | 0.00 | 0.00 | 47 | 1007.8 |
| 20260505073819 | 60 | 349 | 4.0 | 6.0 | 0.00 | 0.00 | 0.00 | 47 | 1007.8 |
| 20260505073331 | 60 | 24 | 2.0 | 5.0 | 0.00 | 0.00 | 0.00 | 46 | 1007.8 |
| 20260505072823 | 60 | 342 | 1.0 | 5.0 | 0.00 | 0.00 | 0.00 | 46 | 1007.7 |
| 20260505072316 | 60 | 185 | 2.0 | 7.0 | 0.00 | 0.00 | 0.00 | 45 | 1007.6 |
| 20260505071826 | 60 | 185 | 4.0 | 7.0 | 0.00 | 0.00 | 0.00 | 45 | 1007.6 |
| 20260505071319 | 60 | 215 | 2.0 | 6.0 | 0.00 | 0.00 | 0.00 | 45 | 1007.5 |
| 20260505070830 | 60 | 215 | 4.0 | 6.0 | 0.00 | 0.00 | 0.00 | 45 | 1007.4 |
| 20260505070322 | 61 | 197 | 2.0 | 5.0 | 0.00 | 0.00 | 0.00 | 44 | 1007.4 |
| 20260505065819 | 61 | 197 | 4.0 | 5.0 | 0.00 | 0.00 | 0.00 | 44 | 1007.3 |
| 20260505065330 | 61 | 165 | 3.0 | 5.0 | 0.00 | 0.00 | 0.00 | 44 | 1007.4 |
| 20260505064822 | 61 | 98 | 2.0 | 2.0 | 0.00 | 0.00 | 0.00 | 43 | 1007.3 |
| 20260505064316 | 62 | 46 | 0.0 | 3.0 | 0.00 | 0.00 | 0.00 | 42 | 1007.1 |
| 20260505063829 | 62 | 45 | 2.0 | 3.0 | 0.00 | 0.00 | 0.00 | 42 | 1007.1 |
| 20260505063319 | 62 | 84 | 2.0 | 2.0 | 0.00 | 0.00 | 0.00 | 42 | 1007.2 |
| 20260505062831 | 62 | 84 | 0.0 | 0.0 | 0.00 | 0.00 | 0.00 | 41 | 1007.1 |
| 20260505062323 | 62 | 84 | 0.0 | 0.0 | 0.00 | 0.00 | 0.00 | 41 | 1007.1 |
| 20260505061820 | 62 | 84 | 0.0 | 0.0 | 0.00 | 0.00 | 0.00 | 41 | 1007.1 |
| 20260505061314 | 62 | 84 | 0.0 | 0.0 | 0.00 | 0.00 | 0.00 | 41 | 1007.1 |
| 20260505060826 | 62 | 84 | 0.0 | 2.0 | 0.00 | 0.00 | 0.00 | 41 | 1007.1 |
| 20260505060314 | 62 | 84 | 0.0 | 2.0 | 0.00 | 0.00 | 0.00 | 41 | 1007.1 |
| 20260505055826 | 62 | 84 | 0.0 | 1.0 | 0.00 | 0.00 | 0.00 | 41 | 1007.2 |
| 20260505055319 | 62 | 84 | 0.0 | 3.0 | 0.00 | 0.00 | 0.00 | 41 | 1007.1 |
| 20260505054850 | 62 | 84 | 2.0 | 3.0 | 0.00 | 0.00 | 0.00 | 41 | 1007.1 |
| 20260505054321 | 62 | 84 | 0.0 | 0.0 | 0.00 | 0.00 | 0.00 | 42 | 1007.1 |
| 20260505053814 | 62 | 84 | 0.0 | 0.0 | 0.00 | 0.00 | 0.00 | 42 | 1007.1 |
| 20260505053325 | 62 | 84 | 0.0 | 0.0 | 0.00 | 0.00 | 0.00 | 42 | 1007.1 |
| 20260505052822 | 62 | 84 | 0.0 | 0.0 | 0.00 | 0.00 | 0.00 | 42 | 1007.1 |
| 20260505052333 | 62 | 84 | 0.0 | 3.0 | 0.00 | 0.00 | 0.00 | 42 | 1007.1 |
| 20260505051823 | 62 | 84 | 1.0 | 3.0 | 0.00 | 0.00 | 0.00 | 42 | 1007.2 |
| 20260505050815 | 62 | 82 | 0.0 | 6.0 | 0.00 | 0.00 | 0.00 | 42 | 1007.2 |
| 20260505050327 | 62 | 82 | 1.0 | 6.0 | 0.00 | 0.00 | 0.00 | 42 | 1007.2 |
| 20260505041347 | 63 | 107 | 3.0 | 7.0 | 0.00 | 0.00 | 0.00 | 39 | 1007.0 |
| 20260505040839 | 63 | 117 | 3.0 | 5.0 | 0.00 | 0.00 | 0.00 | 39 | 1007.1 |
| 20260505040330 | 63 | 104 | 3.0 | 7.0 | 0.00 | 0.00 | 0.00 | 39 | 1007.0 |
| 20260505035822 | 63 | 75 | 3.0 | 7.0 | 0.00 | 0.00 | 0.00 | 39 | 1006.9 |
| 20260505035335 | 63 | 20 | 3.0 | 5.0 | 0.00 | 0.00 | 0.00 | 38 | 1006.8 |
| 20260505034825 | 63 | 51 | 3.0 | 5.0 | 0.00 | 0.00 | 0.00 | 39 | 1006.8 |
| 20260505034318 | 63 | 34 | 3.0 | 6.0 | 0.00 | 0.00 | 0.00 | 39 | 1006.8 |
| 20260505033829 | 63 | 103 | 4.0 | 6.0 | 0.00 | 0.00 | 0.00 | 39 | 1006.8 |
| 20260505033322 | 64 | 80 | 2.0 | 5.0 | 0.00 | 0.00 | 0.00 | 39 | 1006.7 |
| 20260505032834 | 64 | 76 | 2.0 | 5.0 | 0.00 | 0.00 | 0.00 | 38 | 1006.6 |
| 20260505032325 | 64 | 9 | 3.0 | 5.0 | 0.00 | 0.00 | 0.00 | 38 | 1006.5 |
| 20260505031821 | 64 | 195 | 1.0 | 6.0 | 0.00 | 0.00 | 0.00 | 37 | 1006.4 |
| 20260505031333 | 64 | 342 | 3.0 | 6.0 | 0.00 | 0.00 | 0.00 | 37 | 1006.3 |
| 20260505030826 | 64 | 23 | 1.0 | 6.0 | 0.00 | 0.00 | 0.00 | 37 | 1006.3 |
| 20260505030318 | 65 | 55 | 3.0 | 6.0 | 0.00 | 0.00 | 0.00 | 37 | 1006.2 |
| 20260505025353 | 65 | 28 | 3.0 | 5.0 | 0.00 | 0.00 | 0.00 | 35 | 1006.2 |
| 20260505024825 | 65 | 86 | 0.0 | 4.0 | 0.00 | 0.00 | 0.00 | 35 | 1006.2 |
| 20260505024339 | 66 | 91 | 0.0 | 3.0 | 0.00 | 0.00 | 0.00 | 34 | 1006.1 |
| 20260505023832 | 66 | 39 | 1.0 | 5.0 | 0.00 | 0.00 | 0.00 | 34 | 1006.2 |
| 20260505023324 | 66 | 141 | 2.0 | 5.0 | 0.00 | 0.00 | 0.00 | 33 | 1006.0 |
| 20260505022815 | 67 | 77 | 0.0 | 6.0 | 0.00 | 0.00 | 0.00 | 33 | 1006.0 |
| 20260505022325 | 67 | 74 | 2.0 | 6.0 | 0.00 | 0.00 | 0.00 | 33 | 1005.9 |
| 20260505021819 | 68 | 36 | 2.0 | 9.0 | 0.00 | 0.00 | 0.00 | 33 | 1005.9 |
| 20260505021330 | 68 | 5 | 5.0 | 9.0 | 0.00 | 0.00 | 0.00 | 32 | 1005.9 |
| 20260505020822 | 68 | 5 | 3.0 | 9.0 | 0.00 | 0.00 | 0.00 | 34 | 1005.9 |
| 20260505020330 | 69 | 10 | 4.0 | 11.0 | 0.00 | 0.00 | 0.00 | 35 | 1005.8 |
| 20260505015821 | 69 | 351 | 4.0 | 11.0 | 0.00 | 0.00 | 0.00 | 34 | 1005.7 |
| 20260505015313 | 69 | 327 | 3.0 | 5.0 | 0.00 | 0.00 | 0.00 | 32 | 1005.7 |
| 20260505014826 | 70 | 14 | 1.0 | 9.0 | 0.00 | 0.00 | 0.00 | 32 | 1005.7 |
| 20260505014318 | 70 | 344 | 3.0 | 11.0 | 0.00 | 0.00 | 0.00 | 30 | 1005.8 |
| 20260505013829 | 70 | 300 | 4.0 | 12.0 | 0.00 | 0.00 | 0.00 | 32 | 1005.8 |
| 20260505013321 | 70 | 24 | 6.0 | 13.0 | 0.00 | 0.00 | 0.00 | 31 | 1005.7 |
| 20260505012818 | 70 | 336 | 4.0 | 12.0 | 0.00 | 0.00 | 0.00 | 31 | 1005.7 |
| 20260505012328 | 70 | 327 | 5.0 | 12.0 | 0.00 | 0.00 | 0.00 | 33 | 1005.8 |
| 20260505011820 | 70 | 345 | 4.0 | 8.0 | 0.00 | 0.00 | 0.00 | 31 | 1005.8 |
| 20260505011332 | 69 | 24 | 4.0 | 12.0 | 0.00 | 0.00 | 0.00 | 32 | 1005.7 |
| 20260505010826 | 70 | 22 | 4.0 | 12.0 | 0.00 | 0.00 | 0.00 | 31 | 1005.8 |
| 20260505010320 | 70 | 67 | 4.0 | 10.0 | 0.00 | 0.00 | 0.00 | 32 | 1005.6 |
| 20260505005813 | 70 | 32 | 5.0 | 12.0 | 0.00 | 0.00 | 0.00 | 36 | 1005.7 |
| 20260505005325 | 71 | 30 | 4.0 | 12.0 | 0.00 | 0.00 | 0.00 | 32 | 1005.7 |
| 20260505004843 | 71 | 44 | 4.0 | 10.0 | 0.00 | 0.00 | 0.00 | 31 | 1005.7 |
| 20260505004315 | 71 | 60 | 6.0 | 14.0 | 0.00 | 0.00 | 0.00 | 28 | 1005.7 |
| 20260505003848 | 72 | 38 | 7.0 | 14.0 | 0.00 | 0.00 | 0.00 | 28 | 1005.6 |
| 20260505003340 | 72 | 15 | 7.0 | 11.0 | 0.00 | 0.00 | 0.00 | 28 | 1005.6 |
| 20260505002818 | 72 | 21 | 4.0 | 12.0 | 0.00 | 0.00 | 0.00 | 27 | 1005.7 |
| 20260505002350 | 73 | 43 | 6.0 | 13.0 | 0.00 | 0.00 | 0.00 | 28 | 1005.6 |
| 20260505001819 | 74 | 42 | 7.0 | 11.0 | 0.00 | 0.00 | 0.00 | 25 | 1005.7 |
| 20260505001331 | 74 | 14 | 4.0 | 11.0 | 0.00 | 0.00 | 0.00 | 28 | 1005.6 |
| 20260505000822 | 74 | 321 | 6.0 | 11.0 | 0.00 | 0.00 | 0.00 | 23 | 1005.6 |
| 20260505000329 | 74 | 11 | 5.0 | 12.0 | 0.00 | 0.00 | 0.00 | 28 | 1005.6 |
| 20260504235827 | 74 | 27 | 4.0 | 13.0 | 0.00 | 0.00 | 0.00 | 26 | 1005.6 |
| 20260504235353 | 74 | 44 | 5.0 | 13.0 | 0.00 | 0.00 | 0.00 | 27 | 1005.6 |
| 20260504234824 | 74 | 15 | 6.0 | 14.0 | 0.00 | 0.00 | 0.00 | 29 | 1005.6 |
| 20260504234317 | 74 | 36 | 7.0 | 14.0 | 0.00 | 0.00 | 0.00 | 26 | 1005.6 |
| 20260504233849 | 74 | 17 | 6.0 | 11.0 | 0.00 | 0.00 | 0.00 | 26 | 1005.5 |
| 20260504232819 | 74 | 19 | 7.0 | 15.0 | 0.00 | 0.00 | 0.00 | 29 | 1005.4 |
| 20260504232331 | 73 | 58 | 5.0 | 12.0 | 0.00 | 0.00 | 0.00 | 32 | 1005.5 |
| 20260504231823 | 73 | 69 | 5.0 | 12.0 | 0.00 | 0.00 | 0.00 | 31 | 1005.5 |
| 20260504231315 | 74 | 36 | 8.0 | 14.0 | 0.00 | 0.00 | 0.00 | 29 | 1005.5 |
| 20260504230828 | 74 | 41 | 8.0 | 14.0 | 0.00 | 0.00 | 0.00 | 29 | 1005.6 |
| 20260504230341 | 74 | 40 | 8.0 | 15.0 | 0.00 | 0.00 | 0.00 | 30 | 1005.6 |
| 20260504225854 | 74 | 41 | 8.0 | 15.0 | 0.00 | 0.00 | 0.00 | 32 | 1005.6 |
| 20260504225327 | 74 | 12 | 6.0 | 12.0 | 0.00 | 0.00 | 0.00 | 32 | 1005.6 |
| 20260504224839 | 74 | 17 | 5.0 | 14.0 | 0.00 | 0.00 | 0.00 | 32 | 1005.7 |
| 20260504223852 | 73 | 5 | 8.0 | 18.0 | 0.00 | 0.00 | 0.00 | 29 | 1005.8 |
| 20260504223323 | 73 | 342 | 5.0 | 11.0 | 0.00 | 0.00 | 0.00 | 33 | 1005.8 |
| 20260504222817 | 74 | 78 | 6.0 | 18.0 | 0.00 | 0.00 | 0.00 | 29 | 1005.8 |
| 20260504222330 | 74 | 22 | 10.0 | 18.0 | 0.00 | 0.00 | 0.00 | 30 | 1005.8 |
| 20260504221821 | 74 | 32 | 8.0 | 14.0 | 0.00 | 0.00 | 0.00 | 32 | 1005.9 |
| 20260504221314 | 75 | 5 | 8.0 | 14.0 | 0.00 | 0.00 | 0.00 | 31 | 1005.9 |
| 20260504220846 | 75 | 13 | 6.0 | 14.0 | 0.00 | 0.00 | 0.00 | 34 | 1005.9 |
| 20260504220353 | 74 | 360 | 5.0 | 16.0 | 0.00 | 0.00 | 0.00 | 32 | 1006.0 |
| 20260504215821 | 74 | 35 | 7.0 | 16.0 | 0.00 | 0.00 | 0.00 | 32 | 1006.1 |
| 20260504215332 | 74 | 52 | 7.0 | 15.0 | 0.00 | 0.00 | 0.00 | 34 | 1006.2 |
| 20260504214829 | 74 | 26 | 6.0 | 15.0 | 0.00 | 0.00 | 0.00 | 33 | 1006.2 |
| 20260504214341 | 74 | 65 | 6.0 | 16.0 | 0.00 | 0.00 | 0.00 | 34 | 1006.4 |
| 20260504213830 | 74 | 27 | 8.0 | 16.0 | 0.00 | 0.00 | 0.00 | 35 | 1006.4 |
| 20260504213342 | 74 | 360 | 8.0 | 13.0 | 0.00 | 0.00 | 0.00 | 32 | 1006.3 |
| 20260504212813 | 74 | 15 | 7.0 | 13.0 | 0.00 | 0.00 | 0.00 | 31 | 1006.4 |
| 20260504212345 | 74 | 11 | 6.0 | 13.0 | 0.00 | 0.00 | 0.00 | 33 | 1006.3 |
| 20260504211816 | 74 | 15 | 5.0 | 14.0 | 0.00 | 0.00 | 0.00 | 34 | 1006.5 |
| 20260504211326 | 74 | 24 | 7.0 | 14.0 | 0.00 | 0.00 | 0.00 | 36 | 1006.5 |
| 20260504210818 | 74 | 35 | 7.0 | 14.0 | 0.00 | 0.00 | 0.00 | 31 | 1006.5 |
| 20260504210330 | 74 | 51 | 7.0 | 14.0 | 0.00 | 0.00 | 0.00 | 32 | 1006.5 |
| 20260504205820 | 74 | 11 | 7.0 | 14.0 | 0.00 | 0.00 | 0.00 | 32 | 1006.5 |
| 20260504205315 | 74 | 11 | 5.0 | 15.0 | 0.00 | 0.00 | 0.00 | 36 | 1006.6 |
| 20260504204827 | 74 | 38 | 8.0 | 15.0 | 0.00 | 0.00 | 0.00 | 33 | 1006.6 |
| 20260504204318 | 74 | 31 | 3.0 | 10.0 | 0.00 | 0.00 | 0.00 | 35 | 1006.6 |
| 20260504203827 | 74 | 15 | 5.0 | 11.0 | 0.00 | 0.00 | 0.00 | 32 | 1006.6 |
| 20260504203320 | 73 | 39 | 5.0 | 12.0 | 0.00 | 0.00 | 0.00 | 36 | 1006.7 |
| 20260504202832 | 73 | 11 | 8.0 | 12.0 | 0.00 | 0.00 | 0.00 | 33 | 1006.7 |
| 20260504202345 | 74 | 28 | 6.0 | 9.0 | 0.00 | 0.00 | 0.00 | 35 | 1006.8 |
| 20260504201837 | 73 | 355 | 5.0 | 11.0 | 0.00 | 0.00 | 0.00 | 33 | 1006.9 |
| 20260504201329 | 72 | 348 | 3.0 | 11.0 | 0.00 | 0.00 | 0.00 | 36 | 1006.8 |
| 20260504200318 | 71 | 5 | 8.0 | 14.0 | 0.00 | 0.00 | 0.00 | 32 | 1006.8 |
| 20260504195831 | 72 | 5 | 6.0 | 15.0 | 0.00 | 0.00 | 0.00 | 32 | 1006.8 |
| 20260504195343 | 72 | 9 | 6.0 | 11.0 | 0.00 | 0.00 | 0.00 | 34 | 1006.9 |
| 20260504194817 | 72 | 43 | 7.0 | 12.0 | 0.00 | 0.00 | 0.00 | 34 | 1007.0 |
| 20260504194329 | 72 | 360 | 6.0 | 12.0 | 0.00 | 0.00 | 0.00 | 34 | 1007.0 |
| 20260504193821 | 72 | 17 | 3.0 | 8.0 | 0.00 | 0.00 | 0.00 | 37 | 1007.1 |
| 20260504193331 | 72 | 355 | 4.0 | 7.0 | 0.00 | 0.00 | 0.00 | 38 | 1007.2 |
| 20260504192823 | 73 | 339 | 4.0 | 8.0 | 0.00 | 0.00 | 0.00 | 33 | 1007.2 |
| 20260504192315 | 73 | 16 | 4.0 | 6.0 | 0.00 | 0.00 | 0.00 | 34 | 1007.3 |
| 20260504191326 | 73 | 315 | 3.0 | 6.0 | 0.00 | 0.00 | 0.00 | 39 | 1007.3 |
| 20260504190818 | 72 | 293 | 2.0 | 5.0 | 0.00 | 0.00 | 0.00 | 39 | 1007.5 |
| 20260504190314 | 72 | 315 | 2.0 | 5.0 | 0.00 | 0.00 | 0.00 | 43 | 1007.5 |
| 20260504185846 | 71 | 319 | 2.0 | 5.0 | 0.00 | 0.00 | 0.00 | 39 | 1007.5 |
| 20260504185318 | 70 | 329 | 3.0 | 6.0 | 0.00 | 0.00 | 0.00 | 45 | 1007.5 |
| 20260504184829 | 70 | 342 | 2.0 | 6.0 | 0.00 | 0.00 | 0.00 | 47 | 1007.6 |
| 20260504183821 | 68 | 355 | 3.0 | 5.0 | 0.00 | 0.00 | 0.00 | 46 | 1007.8 |
| 20260504183313 | 68 | 355 | 3.0 | 5.0 | 0.00 | 0.00 | 0.00 | 40 | 1007.8 |
| 20260504182825 | 68 | 348 | 3.0 | 5.0 | 0.00 | 0.00 | 0.00 | 41 | 1007.8 |
| 20260504182317 | 67 | 18 | 2.0 | 5.0 | 0.00 | 0.00 | 0.00 | 44 | 1007.9 |
| 20260504181829 | 67 | 28 | 2.0 | 4.0 | 0.00 | 0.00 | 0.00 | 46 | 1007.9 |
| 20260504181321 | 67 | 25 | 2.0 | 4.0 | 0.00 | 0.00 | 0.00 | 47 | 1008.0 |
| 20260504180832 | 66 | 347 | 2.0 | 4.0 | 0.00 | 0.00 | 0.00 | 42 | 1008.2 |
| 20260504180325 | 65 | 338 | 1.0 | 4.0 | 0.00 | 0.00 | 0.00 | 42 | 1008.2 |
| 20260504175818 | 65 | 15 | 3.0 | 4.0 | 0.00 | 0.00 | 0.00 | 49 | 1008.2 |
| 20260504175350 | 65 | 355 | 3.0 | 4.0 | 0.00 | 0.00 | 0.00 | 48 | 1008.3 |
| 20260504174821 | 64 | 351 | 2.0 | 4.0 | 0.00 | 0.00 | 0.00 | 46 | 1008.3 |
| 20260504174313 | 64 | 13 | 1.0 | 5.0 | 0.00 | 0.00 | 0.00 | 51 | 1008.3 |
| 20260504173824 | 63 | 338 | 2.0 | 5.0 | 0.00 | 0.00 | 0.00 | 51 | 1008.4 |
| 20260504173316 | 63 | 19 | 1.0 | 4.0 | 0.00 | 0.00 | 0.00 | 53 | 1008.4 |
| 20260504172828 | 63 | 10 | 2.0 | 4.0 | 0.00 | 0.00 | 0.00 | 51 | 1008.5 |
| 20260504172341 | 63 | 17 | 1.0 | 4.0 | 0.00 | 0.00 | 0.00 | 51 | 1008.4 |
| 20260504171831 | 62 | 19 | 2.0 | 4.0 | 0.00 | 0.00 | 0.00 | 51 | 1008.5 |
| 20260504171327 | 62 | 345 | 2.0 | 4.0 | 0.00 | 0.00 | 0.00 | 48 | 1008.5 |
| 20260504170819 | 62 | 327 | 2.0 | 4.0 | 0.00 | 0.00 | 0.00 | 54 | 1008.5 |
| 20260504160329 | 59 | 249 | 0.0 | 0.0 | 0.00 | 0.00 | 0.00 | 50 | 1009.0 |
| 20260504150818 | 55 | 249 | 0.0 | 0.0 | 0.00 | 0.00 | 0.00 | 45 | 1009.4 |
| 20260504141323 | 52 | 336 | 1.0 | 2.0 | 0.00 | 0.00 | 0.00 | 48 | 1009.5 |
| 20260504140815 | 52 | 53 | 1.0 | 2.0 | 0.00 | 0.00 | 0.00 | 47 | 1009.4 |
| 20260504140324 | 52 | 53 | 0.0 | 2.0 | 0.00 | 0.00 | 0.00 | 48 | 1009.4 |
| 20260504130816 | 51 | 228 | 2.0 | 5.0 | 0.00 | 0.00 | 0.00 | 48 | 1009.0 |
| 20260504130348 | 51 | 166 | 2.0 | 4.0 | 0.00 | 0.00 | 0.00 | 48 | 1009.1 |